Location: Stonelick Lake State Park
(39.2170°N, 84.0850°W)
Time: 07:39:39
(UTC-04:00)

Amateur Radio Satellites - All Passes

Search period start: 18 September 2014 07:09
Search period end: 19 September 2014 07:09
Location: Stonelick Lake State Park, 39.2170°N, 84.0850°W

Satellite Date Start Highest point End Downlink Frequencies (MHz)
Time Altitude Azimuth
SO-50 18 Sep 07:20:10 07:23:35 19° 44° (NE) 07:27:01 436.795 FM
JAS-2 18 Sep 07:34:03 07:40:03 83° 104° (ESE) 07:46:52 435.800 - 435.900 CW/SSB, 435.910 FM
KITSAT 1 18 Sep 07:47:54 07:53:28 21° 257° (WSW) 07:59:02 435.175 FM
ISS 18 Sep 08:08:34 08:09:17 11° 7° (N) 08:10:00 145.800 FM
SO-67 18 Sep 08:10:46 08:13:44 27° 96° (E) 08:16:42 435.3500 MHz FM
AO-7 18 Sep 08:25:58 08:30:46 17° 310° (NW) 08:35:35 29.400 - 29.500 MHz
Hamsat 18 Sep 08:41:43 08:44:28 17° 294° (WNW) 08:47:11 145.90 MHz
STRAND 1 18 Sep 08:43:20 08:47:11 22° 266° (W) 08:51:05 ?
RS-15 18 Sep 08:53:26 09:01:23 22° 337° (NNW) 09:09:24 29.354 - 29.394 USB, Beacon 29.352 USB
SO-50 18 Sep 08:59:47 09:04:33 62° 242° (WSW) 09:09:20 436.795 FM
UOSAT-12 18 Sep 09:07:22 09:10:39 18° 44° (NE) 09:13:54 437.025 FM, 437.400 FM
MaSat-1 18 Sep 09:09:40 09:14:25 45° 109° (ESE) 09:19:10 437.345 MHz
HO-68 18 Sep 09:11:09 09:14:56 15° 90° (E) 09:18:42 435.675 MHz FM
JAS-2 18 Sep 09:21:16 09:24:35 15° 298° (WNW) 09:28:05 435.800 - 435.900 CW/SSB, 435.910 FM
ISS 18 Sep 09:44:06 09:46:56 25° 27° (NNE) 09:49:45 145.800 FM
SO-67 18 Sep 09:44:27 09:46:32 15° 291° (WNW) 09:48:37 435.3500 MHz FM
Oscar 11 18 Sep 10:10:16 10:11:39 11° 90° (E) 10:13:01 145.825 FM, Beacon 2401.500 USB
UKube-1 18 Sep 10:23:37 10:27:04 23° 95° (E) 10:30:30 145.840 MHz, 145.915 MHz
UOSAT-12 18 Sep 10:46:33 10:51:13 62° 242° (WSW) 10:55:48 437.025 FM, 437.400 FM
MaSat-1 18 Sep 10:47:20 10:51:22 24° 305° (NW) 10:55:22 437.345 MHz
HO-68 18 Sep 10:56:14 11:03:27 89° 287° (WNW) 11:10:39 435.675 MHz FM
RS-15 18 Sep 11:12:26 11:19:36 19° 14° (NNE) 11:26:53 29.354 - 29.394 USB, Beacon 29.352 USB
ISS 18 Sep 11:20:35 11:23:45 41° 224° (SW) 11:26:53 145.800 FM
FUNcube-1 18 Sep 11:29:36 11:33:56 38° 97° (E) 11:38:11 145.950 - 145.970 MHz USB
Oscar 11 18 Sep 11:43:54 11:48:11 58° 286° (WNW) 11:52:26 145.825 FM, Beacon 2401.500 USB
UKube-1 18 Sep 11:59:28 12:03:15 30° 291° (WNW) 12:07:03 145.840 MHz, 145.915 MHz
Sapphire 18 Sep 12:10:17 12:13:24 16° 104° (ESE) 12:16:31 437.095 MHz 1200 baud AX-25 AFSK
PCSat 18 Sep 12:35:40 12:40:18 30° 109° (ESE) 12:44:57 145.825 MHz
HO-68 18 Sep 12:45:51 12:50:11 17° 305° (NW) 12:54:31 435.675 MHz FM
Oscar 16 18 Sep 12:50:26 12:52:27 12° 60° (ENE) 12:54:28 437.025 USB, Beacon 2401.1428
FUNcube-1 18 Sep 13:06:37 13:10:02 21° 293° (WNW) 13:13:25 145.950 - 145.970 MHz USB
RS-15 18 Sep 13:25:24 13:35:55 45° 46° (NE) 13:46:46 29.354 - 29.394 USB, Beacon 29.352 USB
ITAMSAT 1 18 Sep 13:30:55 13:32:54 12° 60° (ENE) 13:34:54 435.822 SSB
Uribyol 2 18 Sep 13:34:42 13:37:23 14° 61° (ENE) 13:40:05 436.500 FM
Oscar 19 18 Sep 13:47:43 13:52:33 41° 70° (ENE) 13:57:24 437.125 CW, 437.150 USB
JAS-1B 18 Sep 13:48:18 13:55:44 34° 66° (ENE) 14:02:09 435.800 - 435.900 CW/SSB
Sapphire 18 Sep 13:50:51 13:56:12 66° 300° (WNW) 14:01:37 437.095 MHz 1200 baud AX-25 AFSK
AO-27 18 Sep 14:03:00 14:07:10 25° 66° (ENE) 14:11:20 436.795 MHz FM
PCSat 18 Sep 14:18:35 14:23:34 37° 306° (NW) 14:28:36 145.825 MHz
Oscar 16 18 Sep 14:25:52 14:31:03 84° 257° (WSW) 14:36:17 437.025 USB, Beacon 2401.1428
Oscar 10/S400 18 Sep 14:43:24 14:59:01 20° 149° (SSE) 15:11:46 145.825 - 145.975 CW/USB, Beacon 145.810 USB
Gurwin Techsat 1B 18 Sep 14:47:27 14:52:03 31° 68° (ENE) 14:56:39 435.225 FM
AO-Echo 18 Sep 14:50:18 14:55:03 79° 75° (ENE) 14:59:46 ?
ITAMSAT 1 18 Sep 15:06:30 15:11:39 84° 256° (WSW) 15:16:52 435.822 SSB
Uribyol 2 18 Sep 15:11:05 15:16:13 71° 258° (WSW) 15:21:25 436.500 FM
TMSAT-1 18 Sep 15:24:47 15:29:51 50° 72° (ENE) 15:34:57 436.925 FM
Oscar 19 18 Sep 15:27:58 15:32:01 23° 266° (W) 15:36:05 437.125 CW, 437.150 USB
JAS-1B 18 Sep 15:37:29 15:46:05 52° 259° (W) 15:53:22 435.800 - 435.900 CW/SSB
RS-15 18 Sep 15:37:49 15:48:33 56° 248° (WSW) 15:59:45 29.354 - 29.394 USB, Beacon 29.352 USB
AO-7 18 Sep 15:37:50 15:44:38 29° 58° (ENE) 15:51:26 29.400 - 29.500 MHz
Sapphire 18 Sep 15:38:51 15:40:42 12° 320° (NW) 15:42:33 437.095 MHz 1200 baud AX-25 AFSK
AO-27 18 Sep 15:41:41 15:46:27 38° 262° (W) 15:51:16 436.795 MHz FM
Uosat F 18 Sep 16:00:39 16:04:06 19° 64° (ENE) 16:07:33 435.120 FM
Gurwin Techsat 1B 18 Sep 16:27:14 16:31:55 32° 264° (W) 16:36:38 435.225 FM
TMSAT-1 18 Sep 17:06:19 17:10:02 19° 267° (W) 17:13:45 436.925 FM
AO-7 18 Sep 17:28:37 17:36:50 64° 256° (WSW) 17:45:05 29.400 - 29.500 MHz
Uosat F 18 Sep 17:37:40 17:42:29 49° 260° (W) 17:47:20 435.120 FM
JAS-2 18 Sep 17:47:10 17:51:33 27° 67° (ENE) 17:55:51 435.800 - 435.900 CW/SSB, 435.910 FM
Saudisat 1A 18 Sep 17:55:02 17:59:09 41° 116° (ESE) 18:03:18 436.775 MHz
Hamsat 18 Sep 17:57:18 18:00:54 26° 69° (ENE) 18:04:31 145.90 MHz
OPAL 18 Sep 18:35:35 18:40:48 89° 286° (WNW) 18:45:54 ?
MaSat-1 18 Sep 19:04:13 19:08:03 65° 63° (ENE) 19:11:18 437.345 MHz
STRAND 1 18 Sep 19:16:06 19:19:00 15° 92° (E) 19:21:55 ?
JAS-2 18 Sep 19:31:51 19:36:36 32° 263° (W) 19:41:13 435.800 - 435.900 CW/SSB, 435.910 FM
Hamsat 18 Sep 19:33:06 19:36:46 26° 265° (W) 19:40:27 145.90 MHz
Saudisat 1A 18 Sep 19:35:26 19:38:53 22° 313° (NW) 19:42:21 436.775 MHz
HO-68 18 Sep 19:41:54 19:43:54 11° 50° (NE) 19:45:54 435.675 MHz FM
SO-67 18 Sep 20:14:55 20:18:17 53° 260° (W) 20:21:41 435.3500 MHz FM
OPAL 18 Sep 20:17:11 20:18:51 12° 303° (WNW) 20:20:31 ?
KITSAT 1 18 Sep 20:17:23 20:25:20 65° 114° (ESE) 20:33:19 435.175 FM
STRAND 1 18 Sep 20:53:31 20:58:34 60° 287° (WNW) 21:03:36 ?
Sapphire 18 Sep 20:58:22 21:00:59 13° 42° (NE) 21:03:35 437.095 MHz 1200 baud AX-25 AFSK
UKube-1 18 Sep 21:18:45 21:21:43 18° 66° (ENE) 21:24:42 145.840 MHz, 145.915 MHz
HO-68 18 Sep 21:23:11 21:30:11 62° 70° (ENE) 21:37:13 435.675 MHz FM
PCSat 18 Sep 21:24:29 21:28:39 22° 48° (NE) 21:32:48 145.825 MHz
KITSAT 1 18 Sep 22:14:14 22:21:16 32° 315° (NW) 22:28:20 435.175 FM
FUNcube-1 18 Sep 22:25:17 22:28:58 27° 69° (ENE) 22:32:43 145.950 - 145.970 MHz USB
Oscar 11 18 Sep 22:37:27 22:41:49 87° 257° (WSW) 22:46:13 145.825 FM, Beacon 2401.500 USB
Sapphire 18 Sep 22:39:51 22:45:19 78° 61° (ENE) 22:50:44 437.095 MHz 1200 baud AX-25 AFSK
UKube-1 18 Sep 22:53:36 22:57:38 38° 261° (W) 23:01:41 145.840 MHz, 145.915 MHz
PCSat 18 Sep 23:07:07 23:12:26 57° 246° (WSW) 23:17:43 145.825 MHz
HO-68 18 Sep 23:12:51 23:18:18 23° 266° (W) 23:23:48 435.675 MHz FM
SO-50 18 Sep 23:13:40 23:18:01 56° 117° (ESE) 23:22:30 436.795 FM
FUNcube-1 19 Sep 00:01:36 00:05:16 26° 265° (W) 00:09:03 145.950 - 145.970 MHz USB
KITSAT 1 19 Sep 00:18:38 00:19:50 10° 342° (NNW) 00:21:02 435.175 FM
Sapphire 19 Sep 00:25:39 00:28:00 13° 257° (WSW) 00:30:21 437.095 MHz 1200 baud AX-25 AFSK
SO-50 19 Sep 00:55:46 00:58:56 19° 316° (NW) 01:02:11 436.795 FM
UOSAT-12 19 Sep 00:56:29 01:00:55 51° 117° (ESE) 01:05:29 437.025 FM, 437.400 FM
Oscar 19 19 Sep 02:01:44 02:04:45 15° 91° (E) 02:07:44 437.125 CW, 437.150 USB
AO-40 19 Sep 02:03:40 03:02:07 14° 237° (WSW) 04:26:23 Beacon 2401.320
Saudisat 1A 19 Sep 02:22:50 02:26:35 26° 49° (NE) 02:30:19 436.775 MHz
ISS 19 Sep 02:27:46 02:28:50 11° 128° (SE) 02:29:54 145.800 FM
UOSAT-12 19 Sep 02:37:51 02:41:22 21° 315° (NW) 02:44:56 437.025 FM, 437.400 FM
Oscar 16 19 Sep 02:39:00 02:43:48 37° 98° (E) 02:48:33 437.025 USB, Beacon 2401.1428
PANSAT 19 Sep 02:43:44 02:44:56 11° 166° (SSE) 02:46:08 not established
AO-Echo 19 Sep 02:58:40 03:02:47 27° 96° (E) 03:06:58 ?
Gurwin Techsat 1B 19 Sep 03:06:20 03:08:36 13° 90° (E) 03:10:52 435.225 FM
ITAMSAT 1 19 Sep 03:20:41 03:25:33 38° 98° (E) 03:30:22 435.822 SSB
JAS-1B 19 Sep 03:24:34 03:30:04 46° 99° (E) 03:35:33 435.800 - 435.900 CW/SSB
Uribyol 2 19 Sep 03:25:00 03:30:01 45° 99° (E) 03:35:00 436.500 FM
Oscar 19 19 Sep 03:39:22 03:44:27 59° 287° (WNW) 03:49:29 437.125 CW, 437.150 USB
TMSAT-1 19 Sep 03:42:26 03:46:27 22° 94° (E) 03:50:26 436.925 FM
RS-15 19 Sep 03:50:13 03:58:48 27° 103° (ESE) 04:07:13 29.354 - 29.394 USB, Beacon 29.352 USB
AO-27 19 Sep 03:55:15 04:00:29 84° 104° (ESE) 04:05:43 436.795 MHz FM
ISS 19 Sep 04:01:48 04:05:07 72° 323° (NW) 04:08:27 145.800 FM
Saudisat 1A 19 Sep 04:02:14 04:06:10 32° 246° (WSW) 04:10:06 436.775 MHz
KITSAT 1 19 Sep 04:12:09 04:18:55 28° 43° (NE) 04:25:39 435.175 FM
OPAL 19 Sep 04:12:41 04:16:10 19° 61° (ENE) 04:19:40 ?
Oscar 16 19 Sep 04:18:45 04:22:56 25° 294° (WNW) 04:27:06 437.025 USB, Beacon 2401.1428
PANSAT 19 Sep 04:21:57 04:24:24 16° 179° (S) 04:26:52 not established
AO-Echo 19 Sep 04:37:17 04:41:31 31° 291° (WNW) 04:45:51 ?
Gurwin Techsat 1B 19 Sep 04:43:46 04:49:05 73° 286° (WNW) 04:54:22 435.225 FM
ITAMSAT 1 19 Sep 05:00:36 05:04:49 25° 294° (WNW) 05:09:02 435.822 SSB
Uribyol 2 19 Sep 05:05:13 05:09:10 22° 295° (WNW) 05:13:05 436.500 FM
JAS-1B 19 Sep 05:16:10 05:20:26 22° 298° (WNW) 05:24:38 435.800 - 435.900 CW/SSB
TMSAT-1 19 Sep 05:21:31 05:26:32 45° 289° (WNW) 05:31:33 436.925 FM
AO-7 19 Sep 05:31:23 05:39:20 48° 101° (E) 05:47:14 29.400 - 29.500 MHz
AO-27 19 Sep 05:37:13 05:39:16 12° 300° (WNW) 05:41:18 436.795 MHz FM
ISS 19 Sep 05:40:13 05:42:19 16° 341° (NNW) 05:44:25 145.800 FM
Uosat F 19 Sep 05:46:14 05:51:10 55° 101° (E) 05:56:06 435.120 FM
OPAL 19 Sep 05:49:29 05:54:33 57° 257° (WSW) 05:59:42 ?
RS-15 19 Sep 05:58:54 06:09:58 77° 303° (WNW) 06:20:57 29.354 - 29.394 USB, Beacon 29.352 USB
PANSAT 19 Sep 06:02:08 06:03:54 13° 192° (SSW) 06:05:39 not established
KITSAT 1 19 Sep 06:07:00 06:15:04 74° 244° (WSW) 06:23:04 435.175 FM
STRAND 1 19 Sep 06:30:56 06:34:39 21° 65° (ENE) 06:38:22 ?
JAS-2 19 Sep 06:39:35 06:44:59 31° 97° (E) 06:50:55 435.800 - 435.900 CW/SSB, 435.910 FM
